Regional Weather Roundup
Issued by NWS

Home | Current Version | Previous Version | Graphics & Text | Print | Product List | Glossary On
Versions: 1 2 3 4 5 6 7 8 9 10 11 12 13 14 15 16 17 18 19 20 21 22 23 24 25 26 27 28 29 30 31 32 33 34 35 36 37 38 39 40 41 42 43 44 45 46 47 48 49 50
000
ASUS43 KFSD 190610
RWRSD

WEATHER ROUNDUP FOR SOUTH DAKOTA
NATIONAL WEATHER SERVICE SIOUX FALLS SD
100 AM CDT THU APR 19 2018

NOTE: "FAIR" INDICATES FEW OR NO CLOUDS BELOW 12,000 FEET WITH NO
SIGNIFICANT WEATHER AND/OR OBSTRUCTIONS TO VISIBILITY.


SDZ001>005-009-010-012>017-190700-
NORTHWEST AND NORTH CENTRAL SOUTH DAKOTA

CITY           SKY/WX    TMP DP  RH WIND       PRES   REMARKS
BUFFALO          N/A     40  30  67 S6        30.22
FAITH            N/A     38  33  82 SE7       30.30R
MOBRIDGE       CLEAR     29  25  85 N5        30.29S WCI  24
$$

SDZ012>016-024>037-041>051-057-063-072>074-190700-
SOUTHWEST AND SOUTH CENTRAL SOUTH DAKOTA

CITY           SKY/WX    TMP DP  RH WIND       PRES   REMARKS
RAPID CTY ARPT CLEAR     31  29  92 CALM      30.30R
PIERRE         CLEAR     34  28  79 W3        30.32R
CUSTER         CLEAR     28  17  63 CALM      30.26S
ELLSWORTH AFB  CLEAR     38  36  93 SE5       30.29R
PHILIP         CLEAR     35  32  88 CALM      30.31S
PINE RIDGE     CLEAR     33  32  96 E6        30.30R WCI  28
SPEARFISH      FAIR      34  27  75 S3        30.28S
WINNER         FLURRIES  33  28  81 SW7       30.33R WCI  27
$$

SDZ004>011-016>023-039-040-190700-
NORTHEAST SOUTH DAKOTA

CITY           SKY/WX    TMP DP  RH WIND       PRES   REMARKS
ABERDEEN       PTCLDY    29  27  92 W5        30.33R WCI  24
WATERTOWN      PTCLDY    30  28  92 NW5       30.28R WCI  25
BROOKINGS      PTCLDY    33  28  81 N3        30.29R
SISSETON         N/A     34  30  85 NW6       30.29R WCI  29
$$

SDZ017-020-022-023-036>040-048>070-190700-
SOUTHEAST SOUTH DAKOTA

CITY           SKY/WX    TMP DP  RH WIND       PRES   REMARKS
SIOUX FALLS    CLOUDY    33  26  75 N9        30.27R WCI  25
HURON          CLEAR     32  28  85 CALM      30.32R
CHAMBERLAIN    CLEAR     31  30  98 CALM      30.32R
MITCHELL       CLEAR     34  30  85 W8        30.32R WCI  27
YANKTON        CLEAR     33  32  96 NW12      30.30R WCI  24
$$

ABBREVIATIONS USED IN REMARKS
   TC - TEMPERATURE IN CELSIUS
  WCI - WIND CHILL INDEX
   HX - HEAT INDEX
  VSB - VISIBILITY





USA.gov is the U.S. government's official web portal to all federal, state and local government web resources and services.